Location: Sevilla
(37.3933°N, 5.9839°W)
Time: 11:48:08
(UTC+02:00)

S-56A Canister/Altair - Pass Details

Date: 02 July 2024
Orbit: 638 x 2488 km, 38.9° (Epoch: 14 July)

Event Time Altitude Azimuth Distance (km) Brightness Sun altitude
Rises 02:30:04 0° 286° (WNW) 4,638 11.7 -29.6°
Reaches altitude 10° 02:32:58 10° 280° (W) 3,888 11.2 -29.6°
Maximum altitude 02:42:52 44° 213° (SSW) 2,683 9.8 -29.5°
Enters shadow 02:43:00 44° 212° (SSW) 2,690 9.8 -29.5°
